Location: ??
(35.5052°N, 139.7262°E)
Time: 06:37:24
(UTC+00:00)

Envisat - Pass Details

Date: 29 September 2021
Orbit: 764 x 766 km, 98.2° (Epoch: 23 October)

Event Time Altitude Azimuth Distance (km) Brightness Sun altitude
Rises 19:52:01 0° 11° (N) 3,236 6.4 -9.6°
Reaches altitude 10° 19:54:20 10° 11° (N) 2,306 5.7 -9.1°
Maximum altitude 19:59:25 83° 284° (WNW) 774 3.0 -8.1°
Drops below altitude 10° 20:04:28 10° 197° (SSW) 2,291 5.3 -7.0°
Sets 20:06:46 0° 196° (SSW) 3,213 6.0 -6.6°
